Regional Weather Roundup
Issued by NWS

Home | Current Version | Previous Version | Graphics & Text | Print | Product List | Glossary On
Versions: 1 2 3 4 5 6 7 8 9 10 11 12 13 14 15 16 17 18 19 20 21 22 23 24 25 26 27 28 29 30 31 32 33 34 35 36 37 38 39 40 41 42 43 44 45 46 47 48 49 50
000
ASUS43 KIND 262109
RWRIN

WEATHER ROUNDUP FOR INDIANA
NATIONAL WEATHER SERVICE INDIANAPOLIS IN
500 PM EDT WED APR 26 2017

NOTE: "FAIR" INDICATES FEW OR NO CLOUDS BELOW 12,000 FEET WITH NO
SIGNIFICANT WEATHER AND/OR OBSTRUCTIONS TO VISIBILITY.

* - STATION DOES NOT REPORT WEATHER SUCH AS PRECIPITATION OR FOG.

+ - STATION NOT QUALITY CONTROLLED BY THE NATIONAL WEATHER SERVICE.
    USE DATA WITH CAUTION...ESPECIALLY DEWPOINT AND RELATIVE
    HUMIDITY OBSERVATIONS.

INZ001>003-010>013-019-020-262200-
NORTHWEST INDIANA

CITY           SKY/WX    TMP DP  RH WIND       PRES   REMARKS
GARY /AIRPORT/ MOSUNNY   77  50  38 SW16G30   29.49F
KNOX *+        MOSUNNY   81  25  12 W14G20    29.49S
LA PORTE +     MOSUNNY   77  55  45 SW13G23   29.50S
MICHIGAN CITY+ PTSUNNY   79  52  38 SW14G21   29.49S
MONTICELLO +   PTSUNNY   80  53  38 SW17G24   29.50R
RENSSELAER +   CLOUDY    79  50  36 SW15G22   29.50S
VALPARAISO     MOSUNNY   80  55  42 SW15      29.50F

$$

LMZ046-743>745-262200-
SOUTHERN LAKE MICHIGAN

STATION/POSITION TIME  TEMP    WIND        PRES    WAVE
                       AIR SEA DIR/SP/G            HT
                 (UTC) (F)     (DEG/KT/KT) (MB)    (FT)
BURNS HARBOR     2040   74     220/ 16/ 25  998.6F
MICHIGAN CITY    2040   69     240/ 22/ 25   N/A
5NW MICH CITY    2100   58 50                N/A     2

$$

INZ004-005-014>016-021>024-262200-
NORTH CENTRAL INDIANA

CITY           SKY/WX    TMP DP  RH WIND       PRES   REMARKS
ELKHART        MOSUNNY   82  54  36 SW12G17   29.48F
GOSHEN         MOSUNNY   81  53  37 SW21G28   29.49F
LOGANSPORT +   MOSUNNY   81  54  39 SW20      29.51F
PERU/GRISSOM   MOSUNNY   81  58  45 SW21      29.50F
ROCHESTER +    MOSUNNY   82  52  34 SW10G18   29.50F
SOUTH BEND     CLOUDY    80  55  42 SW18G25   29.49S
WARSAW +       PTSUNNY   81  52  36 SW10G18   29.50F

$$

INZ006>009-017-018-025>027-262200-
NORTHEAST INDIANA

CITY           SKY/WX    TMP DP  RH WIND       PRES   REMARKS
ANGOLA *+      PTSUNNY   82  79  89 SW18      29.51S
AUBURN +       PTSUNNY   81  54  39 S10G18    29.52F
FORT WAYNE     MOSUNNY   84  57  39 SW22G30   29.51F
HUNTINGTON +   PTSUNNY  N/A N/A N/A SW14      29.51F
KENDALLVILLE + MOSUNNY   81  58  45 SW17G25   29.52F

$$

INZ028-029-035-036-043>045-051>053-262200-
WEST CENTRAL INDIANA

CITY           SKY/WX    TMP DP  RH WIND       PRES   REMARKS
CRAWFORDSVL +  CLOUDY    78  55  45 SW17      29.53
GREENCASTLE +  CLOUDY    79  55  44 SW7       29.53F
LAFAYETTE      CLOUDY    78  56  46 SW10G23   29.50F
TERRE HAUTE    CLOUDY    80  56  43 W14       29.52F

$$

INZ030>032-037>040-046>048-054>057-064-065-262200-
CENTRAL INDIANA

CITY           SKY/WX    TMP DP  RH WIND       PRES   REMARKS
CP ATTERBURY + PTSUNNY   81  59  47 S15G23    29.54F
COLUMBUS       PTSUNNY   81  55  41 S16G25    29.55F
FRANKFORT +    PTSUNNY   85  56  36 SW20G28   29.54S
GREENWOOD *+   MOSUNNY   84  55  36 SW13G20   29.55S
INDIANAPOLIS   PTSUNNY   82  59  45 SW16      29.53F
-EAGLE CREEK   PTSUNNY   82  56  40 SW9G18    29.52F
KOKOMO +       MOSUNNY   83  56  39 SW21      29.53F
MARION +       MOSUNNY   81  57  44 SW18      29.53F
MT COMFORT *+  CLOUDY    82  57  42 SW15G23   29.54F
SHELBYVILLE    MOSUNNY   84  60  44 S20G29    29.54F
ZIONSVILLE +   PTSUNNY   81  56  42 SW16      29.54F

$$

INZ033-034-041-042-049-050-058-059-262200-
EAST CENTRAL INDIANA

CITY           SKY/WX    TMP DP  RH WIND       PRES   REMARKS
MUNCIE         SUNNY     85  57  38 SW17G25   29.53F
RICHMOND +     SUNNY     81  59  47 S21G30    29.59F HAZE

$$

INZ060-061-067>069-081>083-085>088-262200-
SOUTHWEST INDIANA

CITY           SKY/WX    TMP DP  RH WIND       PRES   REMARKS
EVANSVILLE     MOSUNNY   84  61  45 S14G26    29.53F
HUNTINGBURG *+ MOSUNNY   80  62  54 S16G28    29.56F
WASHINGTON +   MOSUNNY   83  59  43 S18       29.52F

$$

INZ062-063-066-070>080-084-089>092-262200-
SOUTH CENTRAL AND SOUTHEAST INDIANA

CITY           SKY/WX    TMP DP  RH WIND       PRES   REMARKS
BLOOMINGTON    CLOUDY    84  59  42 S17G23    29.53F
MADISON *+     SUNNY     81  57  44 S12G22    29.60F
SEYMOUR +      SUNNY     86  61  42 S20G26    29.55F

$$





USA.gov is the U.S. government's official web portal to all federal, state and local government web resources and services.